Regional Weather Roundup
Issued by NWS

Home | Current Version | Previous Version | Graphics & Text | Print | Product List | Glossary On
Versions: 1 2 3 4 5 6 7 8 9 10 11 12 13 14 15 16 17 18 19 20 21 22 23 24 25 26 27 28 29 30 31 32 33 34 35 36 37 38 39 40 41 42 43 44 45 46 47 48 49 50
000
ASUS43 KDTX 232101
RWRMI
MICHIGAN HOURLY REGIONAL WEATHER ROUNDUP
NATIONAL WEATHER SERVICE DETROIT/PONTIAC MI
500 PM EDT WED JUL 23 2014

NOTE: "FAIR" INDICATES FEW OR NO CLOUDS BELOW 12,000 FEET WITH NO
SIGNIFICANT WEATHER AND/OR OBSTRUCTION TO VISIBILITY.

MIZ047>049-052>055-059>063-066>070-074>076-081>083-232200-
SOUTHEAST LOWER MICHIGAN

CITY           SKY/WX    TMP DP  RH WIND       PRES   REMARKS
ADRIAN         CLOUDY    75  57  53 NE14      30.05S
ALMA           CLOUDY    70  54  57 N10       30.09S
ANN ARBOR      CLOUDY    72  55  55 N8G20     30.05S
BAD AXE        PTSUNNY   66  54  66 N10G18    30.08F
CARO           CLOUDY    71  59  64 N8        30.07S
DETROIT CITY   CLOUDY    72  54  53 N12G22    30.05F
DETROIT        CLOUDY    72  56  57 N13       30.04F
FLINT          CLOUDY    72  56  57 N12       30.06F
GROSSE ILE     CLOUDY    72  57  60 NE13      30.02F
HILLSDALE      CLOUDY    72  58  60 N9        30.06S
HOWELL         PTSUNNY   72  54  54 N6        30.05F

CITY           SKY/WX    TMP DP  RH WIND       PRES   REMARKS
JACKSON        CLOUDY    74  57  55 VRB6      30.06F
LAMBERTVILLE   CLOUDY    73  57  56 N7        30.04R
LANSING        PTSUNNY   76  57  51 N9        30.07S
LAPEER         CLOUDY    68  55  62 N6        30.06F
MASON          PTSUNNY   73  57  57 NE12      30.06S
MONROE         CLOUDY    73  57  56 N10G17    30.02S
MT. CLEMENS    PTSUNNY   69  55  62 N10       30.04F
PONTIAC        PTSUNNY   70  54  56 N12       30.05F
PORT HOPE        N/A     66  54  65 N9G20     30.08F
PORT HURON     CLOUDY    64  55  72 N14G21    30.06F
TRI CITIES     CLOUDY    72  58  61 NE12      30.08S
TROY           CLOUDY    69  55  60 NE10      30.06F
SAGINAW HB     MOSUNNY   72  55  56 N10G17    30.07S
$$
MIZ043>046-050>051-056>058-064>065-071>073-077>080-232200-
SOUTHWEST LOWER MICHIGAN

CITY           SKY/WX    TMP DP  RH WIND       PRES   REMARKS
BATTLE CREEK   PTSUNNY   76  56  49 N9        30.08S
BENTON HARBOR  SUNNY     66  57  72 NW8G21    30.11S
BIG RAPIDS     CLOUDY    66  53  61 N10G21    30.12S
COLDWATER      PTSUNNY   75  57  53 N13       30.07R
FREMONT        FAIR      72  53  51 N12       30.10S
HOLLAND        SUNNY     71  59  65 NW14G22   30.10F
GRAND RAPIDS   PTSUNNY   77  55  46 NW10      30.08F
IONIA          MOCLDY    72  53  51 N6        30.07S
KALAMAZOO      PTSUNNY   73  55  53 N12       30.07F
LUDINGTON      MOSUNNY   64  55  71 N16       30.15S
MARSHALL       MOSUNNY   71  54  55 N3        30.07S
MOUNT PLEASANT CLOUDY    69  56  62 NW8       30.10S
MUSKEGON       MOSUNNY   72  57  59 W14       30.10F
SOUTH HAVEN    SUNNY     67  60  77 N15G22    30.10F
$$
MIZ016>042-232200-
NORTHERN LOWER MICHIGAN

CITY           SKY/WX    TMP DP  RH WIND       PRES   REMARKS
ALPENA         SUNNY     71  49  45 N15G25    30.10F
BEAVER ISLAND  SUNNY     70  50  49 NW10G17   30.17S
BELLAIRE       PTSUNNY   68  52  56 N6        30.14S
CADILLAC       PTSUNNY   64  54  69 NW9       30.13F
CHARLEVOIX     SUNNY     67  55  64 NW6       30.19S
FRANKFORT      MOSUNNY   66  52  60 N9        30.16F
GAYLORD        PTSUNNY   67  50  54 N8        30.14F
GRAYLING       CLOUDY    69  56  62 NW13      30.14S
HARBOR SPRINGS MOSUNNY   70  51  49 N7G16     30.14S
HOUGHTON LAKE  CLOUDY    66  54  65 N9        30.13F
MANISTEE       MOSUNNY   66  52  59 N10       30.15F
OSCODA         PTSUNNY   70  50  48 NE15G21   30.08S
PELLSTON       CLOUDY    69  51  52 N13       30.15S
ROGERS CITY    SUNNY     68  53  57 N10       30.12F
TRAVERSE CITY  PTSUNNY   67  48  50 N12       30.14F
$$
MIZ007>008-015-232200-
EASTERN UPPER MICHIGAN

CITY           SKY/WX    TMP DP  RH WIND       PRES   REMARKS
KINROSS        MOSUNNY   64  52  63 NW22G29   30.15S
MACKINAC ISLAN SUNNY     69  49  49 N10G20    30.13F
NEWBERRY       SUNNY     66  49  54 NW16G23   30.18S
S. S. MARIE    MOSUNNY   64  50  60 NW17G24   30.16R
MUNISING         N/A     62  50  64 NE7       30.23S
$$
MIZ004>006-011>014-085-232200-
CENTRAL UPPER MICHIGAN

CITY           SKY/WX    TMP DP  RH WIND       PRES   REMARKS
MANISTIQUE     SUNNY     71  48  44 N12G18    30.18S
ESCANABA       PTSUNNY   70  48  46 NE7G17    30.18F
MENOMINEE      PTSUNNY   70  50  49 E10       30.19S
SAWYER-GWINN   MOSUNNY   66  45  45 NE12G17   30.23F
$$
MIZ001>003-009>011-084-232200-
WESTERN UPPER MICHIGAN

CITY           SKY/WX    TMP DP  RH WIND       PRES   REMARKS
IRON MOUNTAIN  PTSUNNY   72  45  37 N6        30.19F
HOUGHTON       SUNNY     69  44  40 VRB5      30.22F
COPPER HARBOR    N/A     65  53  65 N10       30.21F
$$

ABBREVIATIONS USED IN REMARKS
   TC - TEMPERATURE IN CELSIUS
  WCI - WIND CHILL INDEX
   HX - HEAT INDEX
  VSB - VISIBILITY



USA.gov is the U.S. government's official web portal to all federal, state and local government web resources and services.